NOAA 16 DEB, 41370

Orbit data source: Space-Track

NOAA 16 DEB, 41370 is space debris in SSO originally from a launch on Thu, 21 Sep 2000 UTC launched from the Air Force Western Test Range (AFWTR). Debris objects in space refer to the collection of defunct objects orbiting the Earth. Examples of debris include non-operational satellites, rocket bodies, and fragments generated from explosions, collisions, or faulty payload assembly.

Loading next visibility...
Identifier
41370, 2000-055JP
Orbit
SSO
Country
Flag of USUS
Related business
Manufacturer
Unknown
Mission
Spacecraft
Bus & Motor
Unknown
Mass
Unknown
Launch date (UTC)
2000-09-21 (25 years ago)
Launch vehicle
Unknown
Launch site
Air Force Western Test Range (AFWTR)
Object type
Payload
Rocket body
Debris
Shape & HBR
Unknown shape, 0.1 m
Radar Cross Section
Small (<0.1 m²)

Expand to show TLE details & history
Last TLE update: 20 hours ago

TLE from 20 hours ago
0 NOAA 16 DEB
1 41370U 00055JP  26073.77895567  .00211739  00000-0  10367-1 0  9998
2 41370  98.8793   9.5783 0028745  89.8077 270.6446 15.16839881541737
Epoch: 2026-03-14T18:41Z
TLE epoch observation values (Epoch: 2026-03-14T18:41:41.769Z)
Latitude
-0.00002°
Longitude
-83.24098°
Altitude
518.272 km
Speed
7.604 km/s
True Right ascension
00h 38m 18s
True Declination
0° 00' 00"
Sunlit
Object was in daylight at epoch
Visualization orbit readout
Latitude
Unknown
Longitude
Unknown
Altitude
Unknown
Speed
Unknown
Apparent Right ascension
Unknown
Apparent Declination
Unknown
Sunlit
N/A
Visualization observer readout
Local Sidereal Time
18:51:11
Azimuth
Unknown
Elevation
Unknown
Doppler factor
Unknown
Orbital elements
Apogee altitude
532.245 km
Perigee altitude
492.631 km
Semi-major axis
6,890.575 km
Eccentricity
0.00287
Inclination
98.8793°
RAAN
9.5783°
Arg. of periapsis
89.8077°
True anomaly
270.31522°
Mean anomaly
270.6446°
Eccentric anomaly
270.47991°
Mean motion
3.79455 °/min
Orbital period
94.87 mins
BSTAR
0.010367
Loading maneuver chart data...
Computing Atmospheric mass density...
Loading historical data...
Loading historical data...
Loading historical data...
Loading historical data...
Loading historical data...
Loading historical data...
Loading historical data...

Documentation

Showing up to 5 results
|